GEFSSE_500_meanwind_210.txt.gz
Wind_Speed
5 5 6 6 6 6 5 6 6 6 6 7 7 6 6 7 6 6 6 6 5 5 6 6 6 6 7 7 8 9 9 8 8 8 7 7 7 7 6 5 5 4 4
5 6 6 6 5 5 6 6 6 7 6 6 6 6 7 7 7 6 7 6 6 6 7 7 7 7 7 8 9 9 9 9 9 9 9 9 9 8 8 7 6 5 5
6 7 7 7 6 7 7 6 6 6 5 5 5 6 7 6 7 6 6 6 7 7 7 7 8 8 8 8 8 9 9 9 9 9 10 10 9 9 9 9 8 7 6
7 7 8 8 7 8 7 7 6 5 5 4 5 5 5 5 6 6 6 7 7 7 7 8 8 8 8 8 9 9 9 9 9 10 10 10 10 10 10 10 9 8 8
8 8 8 8 8 8 8 7 7 6 5 5 5 5 5 5 6 6 6 7 7 7 7 8 8 8 9 9 9 10 10 10 9 10 10 11 11 11 10 10 9 9 9
8 7 7 8 7 8 8 7 7 7 6 6 6 6 5 5 5 5 6 6 7 7 7 7 8 8 9 9 10 10 10 10 10 10 11 11 11 11 11 11 10 10 10
8 8 8 8 8 8 7 7 7 7 7 6 6 6 5 6 5 5 6 6 7 7 8 8 8 9 10 10 10 11 11 11 10 10 10 10 10 11 11 11 11 11 11
8 8 8 8 8 8 7 7 7 6 6 6 6 6 6 7 6 6 7 7 7 8 9 9 9 9 10 10 10 10 10 10 11 12 11 10 9 10 11 11 12 12 12
7 7 7 7 7 7 7 7 7 7 7 6 6 7 7 7 6 6 7 8 8 9 9 9 9 9 10 10 9 9 10 10 11 12 11 11 11 11 12 12 13 13 12
8 8 7 8 7 7 8 8 8 8 7 7 7 7 7 7 7 7 7 8 8 9 8 9 8 8 9 9 9 9 9 9 10 11 11 11 11 12 12 13 13 13 13
8 8 8 7 8 7 8 8 8 8 8 7 7 7 7 7 7 7 7 8 8 8 7 8 7 8 8 9 9 9 9 10 10 11 11 11 11 12 12 12 13 14 14
8 8 8 8 7 7 8 8 8 7 7 6 6 6 6 6 6 7 7 7 7 7 7 8 7 8 8 9 9 9 10 9 9 9 10 11 11 11 11 11 12 13 13
8 8 9 8 8 8 8 7 7 7 6 6 6 6 6 6 6 5 6 6 6 6 7 8 8 8 8 8 9 9 9 9 9 9 9 10 11 11 11 11 12 12 12
8 9 9 8 8 8 7 7 7 6 6 5 5 5 5 5 5 5 5 6 6 6 6 7 8 8 8 8 7 8 8 8 8 8 8 9 10 11 11 11 12 12 12
9 9 9 8 8 7 7 7 7 6 6 5 5 5 5 5 5 5 5 5 5 5 6 6 7 7 7 7 7 7 6 7 8 8 8 9 9 10 10 11 12 12 12
8 9 8 8 8 7 7 7 6 6 6 5 5 5 5 5 5 4 4 4 5 5 5 5 6 5 5 5 5 6 7 7 7 8 8 8 8 9 9 10 10 11 11
9 9 9 9 8 8 8 7 6 7 6 5 6 5 5 5 4 4 4 4 4 4 4 4 5 5 5 5 5 5 5 5 6 6 7 7 7 8 8 8 9 10 10
9 9 9 10 9 8 8 6 6 7 6 6 6 6 6 5 5 5 4 4 4 4 5 4 4 4 4 4 5 5 5 5 6 6 7 7 7 7 7 8 8 9 9
9 9 10 10 10 9 8 6 6 6 6 6 6 6 6 5 5 5 5 5 5 5 4 4 4 4 4 4 4 4 5 5 6 6 7 7 7 7 8 8 8 9 9
9 9 9 10 9 9 9 8 7 7 7 6 6 6 6 6 6 6 5 5 5 5 4 4 4 4 4 4 4 4 5 5 5 6 7 7 7 7 8 7 8 8 9
9 9 9 9 9 9 9 8 8 7 7 7 7 7 7 7 7 6 6 5 5 5 4 4 4 4 3 3 4 4 4 5 5 6 6 7 7 7 6 7 7 8 8
9 9 9 9 9 9 9 8 8 8 8 7 6 7 7 7 6 6 6 5 5 4 4 4 3 3 3 3 4 4 5 5 5 6 6 6 6 6 6 7 7 8 8
10 10 9 10 9 9 9 8 8 8 8 7 7 7 7 7 7 6 6 5 4 4 4 3 4 4 4 4 4 5 4 5 6 6 5 5 5 5 6 7 7 8 8
9 10 10 10 10 9 9 8 8 8 8 7 7 6 6 7 7 6 6 5 5 5 4 4 4 4 4 4 5 5 5 6 6 6 6 6 6 6 7 7 7 8 9
9 10 10 10 10 10 9 9 8 8 8 7 7 7 7 7 7 6 6 6 5 5 4 4 5 5 5 5 5 5 5 5 5 6 6 6 7 7 7 8 8 8 9
10 10 10 10 10 10 10 9 9 8 8 8 7 8 7 7 7 6 6 6 6 6 5 5 5 5 5 5 5 5 5 6 6 6 7 7 7 7 7 8 8 8 8

GEFSSE_500_meanwind_216.txt.gz
Wind_Speed
4 3 4 5 5 5 6 6 7 7 7 7 7 6 7 8 8 8 8 8 8 8 7 7 8 8 9 9 9 10 10 10 10 9 9 9 8 8 8 7 7 6 6
5 5 5 6 6 6 7 6 7 7 7 7 7 7 7 8 8 9 8 8 7 8 8 8 8 8 9 9 10 10 11 11 11 11 10 10 10 9 8 8 8 8 7
6 6 6 6 6 6 7 6 6 6 6 7 7 7 7 7 8 9 9 9 7 8 9 9 9 9 9 9 10 11 11 11 12 11 11 11 11 10 9 9 9 9 8
6 6 6 6 7 6 6 6 6 6 6 6 7 7 7 7 8 9 9 9 8 8 8 8 9 10 10 10 10 11 11 11 12 12 11 11 11 11 11 11 10 10 9
7 6 6 6 6 6 6 5 5 5 6 7 7 7 8 8 8 9 8 8 8 7 8 8 9 10 11 11 11 10 11 12 12 12 12 12 12 12 12 11 11 11 11
6 6 6 6 6 6 6 6 6 6 5 6 6 7 7 8 8 8 8 8 8 8 8 9 9 10 10 11 11 11 11 11 11 12 12 12 12 13 13 12 11 11 12
5 5 6 6 6 6 6 6 6 6 6 6 6 6 7 8 8 8 8 8 8 9 9 8 8 8 9 10 11 12 12 12 12 12 12 12 12 13 13 12 13 13 13
5 5 6 6 7 6 6 6 6 6 6 6 7 7 7 7 8 8 8 8 8 9 9 9 8 9 9 10 11 12 12 12 12 13 13 12 13 13 13 13 13 13 14
6 6 7 6 6 6 5 6 6 6 6 6 6 6 6 7 8 8 8 8 8 8 8 9 9 9 9 10 11 11 11 12 11 11 11 12 12 12 12 13 13 13 13
6 6 6 6 6 6 5 5 5 5 5 5 6 6 6 7 7 8 8 8 8 8 7 8 8 8 9 9 10 10 10 11 10 11 11 12 12 13 13 13 13 14 14
6 6 6 6 6 6 5 5 5 4 4 4 5 5 5 6 7 7 7 7 7 8 8 7 7 7 8 9 9 9 10 10 9 9 10 11 12 13 14 14 14 14 14
6 7 7 6 6 5 5 5 4 4 4 3 3 3 4 4 5 6 6 6 6 7 7 7 7 7 7 7 8 8 9 9 10 10 10 10 11 12 13 13 13 13 13
6 6 7 6 5 5 4 4 4 4 3 3 3 3 3 4 4 5 6 6 7 6 6 7 8 7 7 7 8 8 8 9 10 10 10 10 11 11 12 13 13 13 13
6 6 6 6 5 5 4 3 4 4 3 3 3 3 3 4 4 4 5 5 5 6 6 6 6 6 6 7 8 8 8 8 9 9 9 10 10 11 11 11 12 13 13
6 6 6 6 5 4 4 4 4 3 3 2 3 3 3 3 3 4 3 4 4 4 5 6 6 6 6 7 7 7 7 7 8 8 8 9 9 10 10 10 11 12 12
7 7 6 6 5 5 5 5 4 4 3 3 3 3 3 3 4 4 3 3 4 4 5 5 5 5 5 5 6 6 7 6 7 7 7 8 9 10 10 10 10 11 12
6 7 7 6 6 6 5 5 4 4 4 3 3 3 3 3 3 3 3 3 3 3 4 4 4 4 4 4 4 5 5 6 6 7 8 8 8 8 9 9 10 10 10
7 7 7 7 7 6 6 5 5 5 4 4 4 4 4 4 4 3 3 3 4 4 4 4 4 4 4 4 3 4 4 5 6 7 7 8 8 8 8 8 9 10 10
7 7 7 8 7 6 6 6 6 5 4 4 4 4 4 4 4 4 4 4 4 4 4 4 4 4 4 4 4 4 4 5 5 6 7 8 8 8 8 8 8 9 10
6 6 7 7 7 7 7 6 6 5 5 4 4 4 4 4 4 4 5 5 4 4 4 4 4 4 4 4 4 4 4 5 5 6 6 7 7 8 8 8 8 9 9
6 6 7 7 7 6 6 6 6 5 5 5 5 4 4 4 4 5 5 5 5 4 4 4 5 4 4 4 4 4 4 4 4 5 6 7 7 7 8 8 8 9 9
6 7 7 8 7 7 6 6 5 5 5 5 4 4 4 4 4 4 5 5 5 4 4 4 4 5 4 4 4 4 4 4 4 5 6 6 7 7 7 8 8 9 9
6 6 7 7 7 7 6 6 5 5 5 5 5 4 4 4 4 4 4 4 4 4 4 4 4 5 5 5 5 5 5 5 5 5 6 6 7 7 7 8 9 9 10
7 6 6 7 7 7 6 6 6 5 5 5 5 5 5 4 4 4 4 4 4 5 5 5 5 5 6 6 6 6 6 6 6 7 7 6 7 7 8 7 8 9 9
8 7 7 7 7 7 6 6 6 5 5 5 5 5 5 5 4 4 4 4 5 5 5 5 5 6 6 6 6 6 7 7 7 7 7 6 6 6 7 7 8 8 8
8 7 7 7 7 7 7 6 6 5 5 5 6 6 6 6 5 4 4 5 6 6 5 5 5 6 6 6 7 7 6 6 6 6 6 6 6 6 7 7 7 7 8

GEFSSE_500_meanwind_222.txt.gz
Wind_Speed
4 4 4 4 5 5 5 4 4 4 4 4 4 4 4 4 5 6 6 7 7 7 8 8 9 10 9 9 9 9 9 9 9 8 9 8 8 8 8 8 7 7 7
5 5 6 6 5 5 5 5 5 5 5 5 5 5 5 5 6 7 7 7 8 7 7 8 8 9 10 10 10 10 10 10 10 10 10 10 9 9 9 9 9 9 8
6 6 6 6 5 5 5 5 5 6 6 6 5 5 5 5 6 7 7 7 8 8 7 7 7 8 9 10 10 10 10 10 11 11 10 10 11 11 11 10 10 9 9
6 6 5 6 6 6 6 6 5 5 6 6 6 6 6 6 7 7 7 8 8 8 8 8 7 8 9 10 10 10 11 11 12 12 12 11 11 12 12 11 11 10 10
6 6 5 5 5 5 6 5 5 5 6 6 6 6 7 8 8 8 8 8 8 7 8 8 9 9 9 9 10 11 11 12 12 13 12 12 12 12 13 13 12 11 11
6 6 5 5 5 5 5 5 5 6 6 6 6 6 7 8 8 8 8 8 8 8 9 9 8 8 8 9 10 10 11 11 12 12 12 12 12 13 14 14 14 13 13
6 5 6 5 5 5 6 5 5 6 6 6 6 6 7 7 7 7 7 8 8 8 8 8 8 8 9 10 11 11 11 11 12 12 12 12 12 13 13 14 14 14 13
6 6 6 5 5 6 6 5 5 5 5 5 6 6 6 7 8 8 8 8 8 8 8 8 8 9 10 10 11 11 12 12 12 12 12 13 13 13 13 13 14 14 14
5 6 6 5 5 5 5 5 4 4 4 5 5 5 6 7 8 8 8 8 8 8 7 8 8 9 10 10 10 11 12 12 12 12 12 13 13 13 14 14 14 14 15
5 6 6 6 6 5 5 5 4 4 4 4 5 5 5 6 7 7 8 8 8 8 7 7 8 8 9 9 10 10 10 10 11 12 13 13 13 13 14 14 14 15 15
6 6 6 6 6 5 5 4 4 4 3 4 4 4 5 5 6 6 7 8 8 8 8 8 8 9 9 9 10 10 10 11 12 12 12 12 13 13 13 13 14 15 15
6 7 6 6 6 5 5 5 4 4 3 3 3 3 3 3 4 5 6 7 7 7 8 8 8 9 9 9 9 10 11 11 11 12 12 12 12 12 13 13 14 15 15
6 6 6 6 6 5 5 4 4 4 3 3 3 3 3 3 4 5 6 6 7 7 7 7 8 8 8 9 10 10 10 11 11 11 11 12 12 12 13 13 14 14 15
6 6 6 6 6 5 5 5 5 4 4 3 3 2 2 3 3 4 5 6 6 6 7 7 7 8 8 8 9 9 10 10 11 11 11 12 12 12 13 13 13 14 14
6 6 6 6 6 5 5 5 5 4 3 3 2 2 3 4 4 5 4 5 5 6 6 6 7 7 7 6 7 8 9 9 10 11 11 11 12 12 12 12 13 13 14
5 6 6 6 6 5 5 5 4 4 4 3 3 3 3 4 4 5 5 5 5 5 5 6 6 7 7 7 7 7 8 8 9 10 10 10 11 11 11 11 12 12 13
6 6 6 6 6 5 5 4 4 5 4 4 3 4 4 4 5 5 5 5 6 6 6 6 6 6 7 7 7 8 7 7 7 8 9 10 10 10 10 11 10 12 12
6 6 6 6 6 5 5 4 5 5 5 4 4 4 5 5 5 5 6 5 6 6 5 6 6 6 6 6 6 7 7 7 7 7 7 8 9 10 10 10 9 10 11
5 5 5 6 6 6 6 5 5 5 5 5 4 5 5 5 6 6 5 5 5 5 5 6 6 6 6 6 6 7 7 7 7 8 8 8 9 10 10 10 10 11 11
5 4 5 6 7 7 6 5 5 6 6 5 5 5 5 5 5 5 5 5 5 5 5 5 6 6 6 6 6 6 6 7 7 7 8 9 10 10 10 11 11 11 12
5 5 5 6 7 7 6 6 5 6 6 5 5 4 4 4 4 4 4 4 5 5 5 5 6 6 6 5 5 6 6 7 8 7 8 9 10 10 10 11 10 11 11
5 5 6 6 6 7 7 6 5 5 5 5 4 4 4 5 5 5 4 4 4 5 5 5 6 6 6 5 6 6 6 6 8 8 8 8 9 10 10 10 10 10 11
6 6 7 7 7 7 7 6 5 4 5 4 4 4 5 5 5 5 4 4 5 5 5 6 6 6 6 6 7 7 7 7 7 8 9 9 10 10 10 11 11 11 11
6 7 7 7 7 7 7 7 6 5 5 5 4 5 5 5 5 5 5 5 5 6 6 6 7 7 7 7 8 8 8 8 9 9 10 10 10 10 10 10 11 11 11
7 7 7 7 8 8 8 7 6 6 5 5 5 5 6 5 5 5 5 6 6 6 6 7 7 8 8 8 8 8 9 9 10 10 10 10 10 10 9 9 9 10 10
7 7 7 7 7 7 7 7 7 6 5 5 6 6 6 6 6 5 5 6 6 6 6 7 8 8 9 9 9 10 10 10 10 10 9 10 10 10 10 10 10 9 10

GEFSSE_500_meanwind_228.txt.gz
Wind_Speed
3 4 3 3 3 3 3 3 4 3 3 4 4 5 6 6 6 6 6 7 7 8 8 9 9 9 9 9 8 9 9 9 10 9 9 10 10 9 8 8 8 8 8
4 4 3 3 4 4 4 5 4 4 4 4 5 6 6 6 7 6 6 7 7 7 8 9 10 10 10 9 10 10 10 10 10 10 10 10 10 10 9 9 10 10 9
4 3 3 4 4 4 4 5 5 5 5 6 6 6 7 7 7 7 7 8 7 8 9 10 11 11 10 10 10 11 11 11 10 11 11 11 11 11 11 11 11 11 11
3 3 3 4 5 5 5 6 6 6 6 6 6 7 7 7 8 8 9 9 9 8 8 8 10 10 10 10 10 11 11 11 11 11 12 12 12 12 12 12 12 12 11
3 3 3 4 5 5 5 6 7 7 7 7 7 7 8 8 8 9 9 9 8 7 7 6 8 9 9 10 10 10 10 11 11 11 12 12 13 13 13 13 13 13 13
3 4 4 4 5 5 5 5 6 7 7 7 7 7 8 8 8 9 9 8 7 7 7 7 7 8 9 9 10 10 10 11 12 12 11 12 12 13 13 13 13 13 13
4 4 4 5 5 5 5 5 5 6 6 7 7 7 8 8 9 9 8 7 7 7 7 8 8 9 10 10 10 11 10 10 11 12 12 12 12 13 13 13 14 14 14
3 4 4 4 5 4 4 4 4 5 6 6 6 7 7 7 8 8 7 7 8 8 8 9 9 9 10 10 10 10 11 11 11 10 11 12 12 14 14 14 14 14 15
4 4 3 4 4 4 4 4 4 4 5 5 5 5 5 6 7 7 7 7 8 8 8 8 8 8 9 10 11 11 11 11 11 11 11 12 13 14 15 15 15 15 15
4 4 4 5 5 5 5 4 4 4 4 4 4 5 5 5 6 7 7 6 7 8 8 8 8 8 9 10 11 11 12 12 12 12 13 13 13 13 14 15 15 16 16
4 4 4 5 5 5 4 4 4 4 3 4 4 5 5 6 6 6 7 7 7 7 7 8 9 9 9 10 11 11 12 12 12 12 13 14 14 14 14 14 15 16 16
5 4 4 5 5 5 4 4 4 4 4 4 4 5 5 5 6 6 7 7 7 7 8 8 8 9 9 9 10 10 11 11 11 12 12 13 14 14 15 15 15 15 15
5 5 5 5 5 5 4 4 4 4 4 4 5 4 5 5 6 6 7 7 8 7 8 8 8 8 9 9 9 9 10 10 11 11 12 13 13 14 15 15 14 14 15
5 5 5 5 4 5 5 5 4 4 4 4 4 5 5 5 6 6 7 7 7 8 8 8 8 8 8 8 9 10 10 11 11 11 12 13 13 13 14 15 14 14 14
5 5 5 5 5 5 4 4 4 4 4 4 4 5 5 5 6 5 6 6 7 8 8 8 8 8 8 7 8 8 8 9 10 10 11 12 12 12 13 14 13 13 13
5 5 5 5 5 4 4 4 4 4 4 4 5 5 5 5 5 6 6 5 6 7 8 7 8 8 7 7 7 7 7 8 9 9 10 11 12 12 13 13 13 13 13
5 5 5 5 5 4 4 4 4 4 4 5 5 5 6 6 6 6 5 5 5 6 7 7 7 7 7 7 7 7 7 8 8 9 10 10 11 12 13 13 13 13 14
5 5 5 5 4 4 5 4 5 4 4 5 5 5 5 5 6 6 5 5 6 6 6 6 6 6 6 6 7 7 7 7 8 9 10 10 10 11 12 13 14 14 14
5 5 5 5 5 5 5 5 5 5 5 5 5 6 6 5 5 6 5 5 6 6 6 6 6 5 5 6 7 7 7 7 8 9 9 10 10 11 11 12 13 13 13
5 5 5 5 5 5 5 5 5 5 5 5 5 6 6 5 6 6 6 6 6 6 6 6 6 6 6 6 6 7 8 8 8 9 9 10 10 10 11 12 12 12 12
6 6 6 5 5 5 5 6 5 5 5 5 5 5 5 5 5 6 6 6 6 6 6 6 6 6 7 7 6 7 8 8 8 9 9 10 10 10 11 11 11 12 12
6 7 6 6 6 6 6 7 6 5 5 5 5 4 5 5 5 5 5 5 5 5 6 6 6 7 7 7 7 7 7 8 8 9 9 10 10 11 12 12 12 12 12
8 8 7 6 6 6 7 7 7 6 6 6 5 5 5 5 5 4 5 5 6 6 6 7 7 7 7 7 8 8 8 8 8 9 9 9 10 11 12 13 12 12 12
8 8 8 7 7 8 8 7 7 6 6 5 5 5 5 5 5 5 5 5 6 6 7 7 7 7 8 9 8 8 9 10 10 10 10 10 10 11 11 11 12 12 12
8 8 8 7 8 8 8 8 7 7 7 6 6 5 5 5 5 5 5 5 5 6 6 6 7 8 8 9 8 8 9 9 10 11 11 11 11 10 10 10 10 11 12
9 9 8 8 8 8 8 7 7 7 7 7 7 6 6 6 5 5 5 6 6 6 6 7 8 9 9 9 9 9 10 10 10 10 11 11 10 10 10 10 11 11 11

GEFSSE_500_meanwind_234.txt.gz
Wind_Speed
5 6 6 6 7 7 7 6 6 6 6 6 6 6 6 7 8 8 9 8 9 9 10 9 9 9 9 9 8 8 8 8 8 8 8 8 8 8 8 8 7 7 7
6 7 7 7 7 8 7 7 6 6 6 7 7 7 8 8 8 9 9 9 9 10 10 10 10 10 10 9 9 9 10 10 9 10 9 10 9 9 9 9 8 8 8
7 7 8 7 7 7 7 7 7 7 7 7 8 8 9 9 9 9 9 9 9 10 11 11 11 11 11 11 10 10 10 10 10 10 11 11 11 10 10 10 9 8 9
7 7 7 7 7 8 8 8 8 8 8 8 8 9 9 9 9 10 10 10 11 11 11 11 11 11 11 11 11 11 10 10 11 11 11 12 11 11 11 10 9 9 10
7 7 7 8 8 8 8 8 8 8 8 9 9 9 9 10 10 10 11 11 11 12 12 12 11 11 11 12 11 11 11 11 11 11 11 11 12 12 11 11 10 11 11
7 7 7 7 7 7 8 7 7 7 8 8 9 9 9 10 10 11 11 11 10 11 11 11 11 11 11 11 11 11 11 12 11 11 11 11 12 12 12 12 12 12 12
7 7 6 6 7 7 8 7 7 7 8 8 9 9 9 9 9 10 10 10 10 9 8 9 10 10 10 10 10 10 11 11 11 11 12 12 12 13 13 14 13 13 14
7 7 7 7 7 7 7 7 7 7 7 8 8 8 9 9 9 9 8 9 9 8 8 8 9 10 10 10 11 11 11 10 10 12 12 12 13 13 13 14 14 14 14
7 8 8 8 7 7 7 7 7 7 7 7 8 8 8 7 8 8 8 7 8 8 8 7 7 8 9 9 9 11 12 11 11 11 11 12 13 13 14 14 14 14 15
8 8 8 7 7 7 7 6 7 7 7 7 7 7 7 8 7 8 7 8 8 8 7 8 8 9 9 9 10 10 11 11 11 12 12 12 13 13 14 14 14 14 15
8 8 8 8 8 8 7 7 7 7 7 7 7 7 7 8 8 8 8 7 7 7 7 8 9 9 9 9 9 10 9 10 11 12 12 12 13 13 13 15 15 14 15
8 8 8 8 8 8 8 8 7 7 7 7 7 7 7 8 8 8 7 7 7 7 7 8 9 9 10 10 10 10 10 10 11 11 11 12 13 14 15 15 15 16 16
8 8 8 8 8 8 8 8 7 7 7 7 7 7 7 7 8 8 7 7 7 7 8 8 8 8 9 10 10 10 10 11 10 10 11 12 12 13 13 14 15 16 16
8 8 8 9 8 8 8 8 8 8 7 7 7 7 7 7 7 7 7 7 7 8 8 8 8 8 8 9 9 10 10 10 10 11 11 12 12 13 13 13 14 14 15
8 8 8 8 8 8 8 8 8 8 7 7 7 7 7 7 8 7 8 8 8 8 8 9 8 9 8 8 8 8 9 9 10 10 10 11 13 13 13 13 14 14 14
8 8 8 8 8 8 8 8 8 8 8 8 7 7 7 8 7 8 8 8 8 8 8 8 8 9 8 8 8 8 8 8 9 9 10 11 12 13 13 14 14 14 14
8 8 8 8 8 8 8 8 8 8 8 8 8 8 8 8 8 8 8 8 8 8 8 8 8 9 9 8 8 8 8 9 9 9 9 10 10 10 11 12 12 13 13
8 8 8 8 8 8 8 9 9 9 8 8 8 8 8 9 9 8 8 8 8 8 8 8 8 9 8 7 8 8 8 9 9 9 9 10 10 10 10 11 11 12 13
8 8 8 8 8 8 9 9 9 9 8 8 8 9 9 9 9 9 8 8 8 8 8 7 8 7 7 7 7 7 8 9 9 9 10 10 11 11 12 12 12 13 14
9 8 8 8 8 8 9 9 9 9 8 8 9 9 9 9 9 9 8 8 8 8 8 7 7 7 7 7 7 8 8 9 9 10 10 10 11 11 12 12 12 13 13
9 9 8 8 8 8 8 9 9 9 9 9 9 10 10 9 8 8 8 8 8 8 7 7 7 7 8 8 8 8 9 9 10 11 11 11 11 11 11 11 12 12 13
10 9 8 8 8 8 9 9 9 9 9 9 9 9 9 9 9 8 8 8 8 7 7 7 7 8 8 9 9 9 9 10 10 11 11 11 11 11 12 12 12 12 12
10 10 9 9 9 9 9 10 10 10 10 10 10 9 9 9 8 8 8 8 8 7 7 7 8 8 8 9 9 9 10 10 10 10 11 11 11 11 12 12 12 13 13
10 10 9 9 9 10 10 10 10 10 11 11 10 10 9 9 8 8 7 7 8 8 8 8 7 7 8 8 9 10 10 11 11 11 11 11 11 11 11 12 11 12 12
10 10 10 10 10 10 11 11 11 11 11 11 11 10 10 9 9 8 8 7 7 7 7 8 8 8 9 9 10 10 11 11 11 11 11 11 11 11 11 12 11 11 10
11 11 11 11 11 11 12 12 12 12 12 12 11 10 10 9 8 8 8 8 8 8 8 8 9 9 10 10 10 10 11 12 11 11 11 11 11 11 11 11 11 11 11

GEFSSE_500_meanwind_240.txt.gz
Wind_Speed
4 4 5 5 6 6 6 6 6 7 7 7 8 9 9 9 9 9 9 8 9 10 10 10 10 10 10 9 9 9 9 9 9 9 10 10 9 9 8 8 8 8 7
5 5 5 5 6 6 6 7 6 7 7 8 9 9 9 10 10 9 9 10 11 11 12 11 11 11 11 10 10 10 10 10 10 10 11 11 10 10 9 9 9 8 8
5 6 5 5 6 7 6 6 6 7 7 8 9 9 10 10 11 11 10 10 11 12 12 12 12 13 12 12 11 11 11 12 11 11 11 11 11 12 11 10 10 9 9
5 6 6 6 6 7 7 7 6 6 7 8 8 9 9 10 11 11 10 10 11 11 12 12 12 12 12 12 12 12 12 12 12 11 12 12 12 13 12 11 11 10 10
6 6 7 7 6 6 6 6 6 6 6 7 7 8 9 10 10 10 10 11 12 12 12 13 13 12 12 11 12 11 12 12 11 11 12 12 12 12 13 12 12 11 11
6 6 6 6 5 5 5 5 5 6 6 6 7 7 8 9 9 10 10 11 11 12 13 13 13 13 13 12 11 12 12 12 12 12 12 12 11 12 12 13 12 12 12
6 6 6 6 5 5 5 5 5 6 6 6 6 7 7 8 9 10 11 11 12 12 12 13 14 13 13 12 12 12 13 13 12 12 13 12 12 13 14 13 13 13 13
6 6 7 6 6 5 5 5 6 6 6 6 6 7 7 7 8 9 10 10 10 11 11 12 13 12 12 12 12 12 12 12 12 12 13 14 14 13 14 14 14 14 14
6 7 6 6 6 6 5 6 6 5 5 6 6 6 7 7 7 8 8 8 9 8 8 9 11 10 11 12 12 12 11 11 11 11 12 13 13 13 14 15 15 15 15
7 7 6 6 6 6 6 6 6 5 5 5 6 6 6 6 7 8 8 9 8 7 6 7 8 9 10 10 10 11 12 11 11 12 12 12 13 14 15 15 16 16 16
6 6 6 6 6 6 6 6 6 6 5 5 6 6 6 7 7 7 7 7 7 7 7 7 7 7 8 9 9 9 10 11 11 11 12 12 13 14 15 16 16 17 17
6 6 6 6 6 6 6 5 5 5 6 6 6 6 6 6 6 6 6 7 7 7 7 7 7 8 8 9 9 9 9 10 11 11 12 11 12 12 14 15 15 16 17
6 6 6 6 6 6 5 5 5 5 6 6 6 6 5 5 5 5 6 6 6 6 6 6 7 7 8 9 10 9 10 10 10 10 10 11 11 12 12 13 14 15 15
6 6 5 5 5 5 5 5 5 5 6 6 6 6 5 5 5 5 6 6 5 5 5 5 6 7 8 8 9 9 10 10 10 11 10 10 11 11 11 11 12 13 14
6 6 6 5 5 5 5 5 5 5 5 5 5 5 5 6 6 5 5 5 5 5 5 5 6 6 7 7 7 8 9 10 11 11 10 10 11 11 11 11 11 13 13
7 7 7 6 5 6 6 6 6 6 5 5 5 5 5 5 5 5 4 5 5 6 6 6 6 7 7 7 7 8 8 9 9 10 11 11 11 11 11 12 12 12 13
7 7 7 6 6 6 6 6 6 6 6 6 5 5 5 5 4 5 4 5 6 6 6 6 6 6 7 7 7 7 8 7 8 9 10 11 11 12 12 12 13 13 13
7 7 7 7 7 6 6 6 7 7 6 6 5 5 5 5 5 5 5 6 6 6 6 6 6 6 6 7 7 7 7 7 7 8 9 10 11 11 12 12 13 13 12
7 7 7 7 7 7 6 6 7 7 6 6 5 5 6 6 6 5 5 6 6 6 6 6 6 6 6 6 6 6 7 7 8 8 8 9 10 11 12 12 12 13 13
7 6 6 7 7 7 7 6 6 6 7 6 6 6 7 7 6 6 6 6 6 6 6 6 6 6 6 6 7 6 6 7 7 7 8 9 10 10 11 11 12 12 12
7 7 7 7 7 7 7 7 7 7 7 7 7 7 7 7 6 6 6 6 6 6 6 6 6 6 6 6 7 7 7 7 7 7 8 9 9 10 11 11 12 11 11
7 7 7 7 7 7 7 8 7 8 8 8 8 8 8 7 7 7 7 7 6 7 7 7 7 7 7 7 8 8 7 8 8 9 9 9 10 11 11 11 12 11 11
7 6 6 7 7 7 8 8 8 8 8 8 8 8 8 8 8 8 7 7 7 7 7 7 7 7 7 8 8 8 8 8 8 9 9 10 10 10 10 10 11 11 11
7 7 7 7 7 7 8 8 9 9 9 8 9 9 9 9 8 8 7 7 7 7 7 7 7 8 8 8 9 8 9 9 9 9 9 10 10 10 10 10 10 10 10
8 8 8 8 9 8 8 9 9 10 10 9 9 9 8 9 8 7 7 7 7 8 8 9 9 9 9 9 9 9 9 10 10 9 9 9 10 10 10 10 10 10 10
9 9 9 9 9 9 10 10 10 10 10 9 9 9 8 8 8 8 8 8 8 8 8 9 9 9 10 10 10 10 10 10 10 10 10 10 9 10 10 10 10 10 11

GEFSSE_500_meanwind_246.txt.gz
Wind_Speed
3 3 4 5 6 6 6 5 5 5 5 5 6 6 7 8 9 9 8 8 8 8 8 8 7 8 8 8 8 7 7 7 8 9 9 9 9 8 8 8 8 7 8
3 4 5 6 7 6 6 5 5 5 5 6 6 7 8 8 9 8 7 7 8 8 9 10 10 9 9 10 10 9 9 9 10 10 10 10 10 10 9 9 9 8 8
4 5 5 7 7 6 6 6 5 5 5 5 6 6 7 8 8 8 8 8 8 9 9 10 10 10 10 11 10 10 10 11 11 11 11 11 11 11 11 10 10 10 9
5 5 6 6 5 6 6 6 5 4 5 5 5 6 6 6 7 7 8 8 9 9 10 11 11 11 11 11 11 11 11 12 12 12 12 12 12 12 12 12 12 12 11
6 6 7 6 5 5 5 5 5 4 5 5 5 6 6 6 6 7 8 8 9 10 10 11 11 11 11 11 11 12 12 13 12 13 13 13 13 13 13 13 13 13 13
7 7 7 7 6 5 5 5 4 4 4 5 5 6 6 6 6 7 8 9 9 10 11 11 12 12 11 11 12 13 12 13 12 13 13 12 12 13 14 13 13 13 13
6 6 6 6 6 5 5 4 5 5 5 5 6 6 6 7 7 8 8 9 10 11 12 12 12 12 12 12 12 12 13 13 13 13 12 13 13 14 15 15 14 14 14
6 5 5 5 5 4 5 5 5 5 5 5 5 6 6 7 8 8 9 9 10 11 11 12 13 13 13 13 13 14 14 14 14 14 14 14 15 15 16 16 15 15 14
6 5 5 5 5 5 5 5 5 4 5 5 6 6 7 7 8 9 9 9 9 10 11 12 12 12 12 13 13 14 14 14 14 13 13 13 14 14 15 16 16 16 16
6 6 5 5 5 5 5 4 5 5 5 5 6 6 6 7 8 8 8 8 9 10 11 12 12 12 11 12 12 12 13 13 13 13 13 13 13 14 15 16 17 17 17
6 6 6 6 5 5 5 5 5 5 5 6 6 6 6 7 7 7 8 8 8 9 9 9 10 10 10 11 11 11 11 11 12 12 13 13 13 14 14 15 16 17 18
6 6 6 5 5 6 6 5 5 5 6 6 6 6 6 6 6 7 7 8 8 8 7 7 7 8 10 10 10 10 10 10 11 11 12 13 13 13 13 14 16 17 17
7 6 6 6 6 6 6 5 5 5 6 6 6 6 6 6 6 7 7 7 7 7 6 6 7 7 8 9 9 9 10 10 11 11 12 13 12 13 13 14 15 15 16
6 6 6 6 6 6 6 6 6 6 6 5 6 6 6 6 6 6 6 6 6 7 7 6 6 6 6 7 8 9 9 9 11 11 12 13 12 12 13 14 14 14 15
7 7 6 6 6 6 6 6 6 6 6 5 5 5 5 6 6 7 7 7 7 7 6 6 6 6 7 7 8 8 9 9 10 10 11 11 12 12 12 12 13 13 13
7 7 6 6 6 6 6 6 6 5 6 6 6 6 6 7 7 6 6 6 7 6 6 6 6 7 8 8 8 8 8 9 10 11 10 10 10 11 11 11 12 12 13
7 7 6 6 6 6 6 6 5 5 5 6 6 6 6 6 7 7 6 6 6 6 6 6 7 7 8 8 8 8 8 8 8 9 10 10 10 11 11 11 12 12 13
6 6 6 7 6 6 6 6 6 6 5 5 5 5 6 6 6 6 6 6 6 6 7 7 7 7 7 7 8 8 8 8 8 9 10 10 11 11 11 12 12 13 13
6 6 6 6 6 6 6 6 6 6 5 5 5 6 6 6 6 6 7 7 8 7 8 8 8 8 7 6 7 8 8 8 8 9 10 10 10 11 11 12 13 13 14
6 6 6 6 5 5 6 6 6 6 6 6 6 6 7 7 8 8 8 8 8 8 8 8 8 8 8 8 8 8 8 8 8 8 8 9 9 10 11 11 12 13 13
6 6 6 6 6 6 6 6 7 6 6 6 7 7 7 8 9 9 8 9 8 8 8 8 8 8 8 8 8 8 8 8 8 8 8 9 9 10 11 11 12 12 12
7 7 6 6 6 6 6 6 7 7 6 7 7 8 8 9 9 9 9 9 9 9 9 9 8 8 8 8 8 8 8 8 9 9 9 10 10 11 11 11 13 13 13
7 7 7 7 7 7 7 7 7 7 7 7 8 8 9 9 9 9 9 9 9 9 9 9 8 9 9 9 9 10 10 9 9 9 10 10 11 12 11 12 12 12 13
8 8 7 8 8 8 8 8 8 8 7 8 8 9 9 10 9 9 9 9 9 9 9 9 9 9 9 9 9 10 10 10 9 10 11 11 12 13 13 13 13 13 12
9 9 9 9 9 9 9 9 9 9 9 9 9 10 10 10 9 9 9 8 8 9 9 9 9 9 9 9 9 10 10 10 11 11 11 12 12 13 14 14 14 13 13
10 10 10 10 10 10 10 10 10 10 10 10 10 10 10 10 9 9 9 9 9 9 9 9 9 9 9 9 9 9 10 10 11 11 12 12 13 14 14 14 14 14 14

GEFSSE_500_meanwind_252.txt.gz
Wind_Speed
2 3 3 3 3 4 5 4 4 5 6 6 7 7 7 7 8 8 8 8 9 9 9 9 9 8 8 8 8 8 7 8 9 9 8 9 9 9 9 9 9 9 9
3 3 3 3 3 4 4 5 5 5 5 6 6 7 7 8 8 9 9 9 10 10 10 10 10 9 9 8 8 9 8 8 9 9 9 9 10 10 10 10 10 10 10
3 3 3 4 4 5 5 5 5 5 5 6 6 6 6 7 8 8 9 9 10 10 10 10 10 10 10 9 9 9 10 10 10 11 11 11 11 11 11 12 12 12 11
4 4 4 4 4 5 5 5 5 6 6 5 5 5 6 6 7 8 8 9 9 10 10 10 10 10 10 10 10 10 11 11 11 12 12 12 12 12 12 13 13 13 13
5 5 5 4 4 4 5 5 6 6 5 5 6 6 6 7 7 7 8 9 9 10 10 11 11 11 11 11 11 11 12 12 12 13 13 13 13 13 14 14 15 14 13
5 5 5 5 5 5 4 4 4 5 6 6 6 6 7 7 8 8 8 8 9 10 10 10 10 10 11 11 12 12 12 12 13 13 13 13 13 13 14 15 15 15 15
5 5 5 5 5 5 5 4 4 5 5 6 6 6 7 8 8 9 10 9 10 10 10 11 11 11 11 12 13 13 13 13 13 13 13 13 14 14 14 15 15 14 15
5 6 5 5 5 5 4 4 5 5 5 6 6 6 7 8 9 9 10 10 10 11 11 11 11 12 11 12 13 13 13 13 13 14 15 15 15 15 16 16 16 16 15
6 5 5 5 5 5 5 5 5 5 6 6 7 7 7 8 9 9 10 10 10 11 10 11 11 12 12 12 12 12 12 13 13 14 15 15 15 15 15 16 17 17 17
5 6 6 5 5 5 5 5 5 6 6 6 7 7 8 8 8 9 9 9 10 10 10 10 11 12 12 12 12 12 13 13 13 13 13 13 14 14 15 16 17 17 17
6 6 6 6 5 5 5 6 6 6 7 7 7 7 8 8 8 8 8 9 9 9 9 10 10 11 12 11 11 11 12 12 12 12 12 12 13 14 14 15 16 17 17
6 6 6 6 6 6 6 6 6 6 6 6 7 7 7 7 8 8 8 8 8 9 10 10 11 11 11 11 11 11 11 11 11 12 12 12 12 13 14 15 16 16 16
6 7 6 6 6 6 6 6 6 6 6 6 6 6 7 7 8 8 8 8 8 9 10 10 11 11 11 10 10 11 11 11 12 12 12 12 12 13 13 14 15 15 16
7 7 7 7 7 7 6 6 7 7 7 7 7 7 7 7 7 8 9 9 9 9 10 10 10 10 10 10 10 10 11 12 12 12 12 12 12 12 12 13 13 14 15
7 7 7 7 7 7 6 6 6 6 7 7 7 7 7 7 7 8 8 8 9 9 9 9 9 9 9 9 9 9 10 11 11 11 11 11 11 12 12 12 13 13 13
7 7 7 7 7 7 7 6 7 7 7 7 7 7 7 7 8 7 7 8 8 8 8 9 9 8 9 9 9 9 10 10 10 10 11 11 12 12 12 12 13 13 13
6 6 6 7 7 7 7 7 7 7 7 7 7 7 6 7 7 7 7 7 8 9 8 8 9 8 9 9 9 9 10 10 10 10 10 11 11 12 12 12 13 13 14
7 7 7 7 8 8 7 7 7 7 7 7 7 6 6 6 7 7 7 7 8 8 8 8 8 8 8 9 9 10 10 10 10 11 11 11 11 11 11 12 13 13 14
7 7 7 8 8 8 7 7 7 7 6 6 6 6 6 6 7 7 8 8 7 7 7 7 8 8 9 10 10 10 11 11 11 12 12 12 12 11 11 11 12 12 12
7 8 8 8 8 8 7 7 7 7 7 6 6 6 7 7 8 8 8 8 7 7 8 8 9 9 10 10 11 11 11 11 12 12 11 11 11 11 10 10 11 12 12
7 8 8 8 8 7 7 7 7 7 7 7 7 7 8 8 8 8 8 8 8 8 8 8 9 10 10 10 11 11 11 11 10 11 11 11 11 11 10 10 11 12 12
8 8 8 9 8 8 8 8 8 8 8 8 7 8 8 9 9 9 8 8 9 9 9 9 9 9 10 11 11 12 11 11 10 11 11 11 11 11 11 11 11 12 12
8 9 9 9 9 9 9 10 9 8 8 8 8 9 9 9 10 10 10 10 9 9 9 10 10 9 9 10 10 10 10 9 9 10 11 11 11 12 11 11 11 12 13
9 9 9 9 10 10 10 10 10 9 9 9 9 10 10 10 10 11 11 10 10 9 9 9 9 9 9 9 9 9 9 9 9 10 11 11 11 11 12 12 12 12 12
10 10 10 10 11 11 11 11 10 10 10 10 10 11 11 11 11 11 10 10 10 9 9 9 9 9 8 8 9 9 9 9 10 10 11 13 13 12 12 13 13 13 13
11 11 11 11 11 11 11 11 11 11 11 11 11 11 11 11 11 11 10 10 10 9 9 9 9 9 9 9 9 9 10 10 10 11 11 12 13 13 13 13 13 13 14